QPF
0.00 0.00 0.00 0.00 0.00 0.00 0.00 0.00 0.00 0.00 0.00 0.00 0.00 0.00 0.00 0.00 0.00 0.00 0.00 0.00 0.00 0.00 0.00 0.00 0.00 0.00 0.00 0.00 0.00 0.00 0.00 0.00 0.00 0.00 0.00 0.00 0.00 0.00 0.01 0.01 0.01 0.01 0.01 0.01
0.00 0.00 0.00 0.00 0.00 0.00 0.00 0.00 0.00 0.00 0.00 0.00 0.00 0.00 0.00 0.00 0.00 0.00 0.00 0.00 0.00 0.00 0.00 0.00 0.00 0.00 0.00 0.00 0.00 0.00 0.00 0.00 0.00 0.00 0.00 0.01 0.01 0.01 0.01 0.02 0.02 0.03 0.03 0.03
0.00 0.00 0.00 0.00 0.00 0.00 0.00 0.00 0.00 0.00 0.00 0.00 0.00 0.00 0.00 0.00 0.00 0.00 0.00 0.00 0.00 0.00 0.00 0.00 0.00 0.00 0.00 0.00 0.00 0.00 0.00 0.00 0.01 0.01 0.01 0.01 0.01 0.02 0.03 0.04 0.04 0.05 0.06 0.06
0.00 0.00 0.00 0.00 0.00 0.00 0.00 0.00 0.00 0.00 0.00 0.00 0.00 0.00 0.00 0.00 0.00 0.00 0.00 0.00 0.00 0.00 0.00 0.00 0.00 0.00 0.00 0.00 0.00 0.00 0.00 0.01 0.01 0.02 0.02 0.02 0.03 0.04 0.05 0.07 0.07 0.07 0.07 0.08
0.00 0.00 0.00 0.00 0.00 0.00 0.00 0.00 0.00 0.00 0.00 0.00 0.00 0.00 0.00 0.00 0.00 0.00 0.00 0.00 0.00 0.00 0.00 0.00 0.00 0.00 0.00 0.00 0.00 0.00 0.01 0.01 0.02 0.02 0.03 0.04 0.04 0.05 0.07 0.09 0.08 0.09 0.10 0.10
0.00 0.00 0.00 0.00 0.00 0.00 0.00 0.00 0.00 0.00 0.00 0.00 0.00 0.00 0.00 0.00 0.00 0.00 0.00 0.00 0.00 0.00 0.00 0.00 0.00 0.00 0.00 0.00 0.00 0.01 0.01 0.02 0.02 0.03 0.05 0.05 0.05 0.06 0.07 0.09 0.09 0.10 0.10 0.11
0.00 0.00 0.00 0.00 0.00 0.00 0.00 0.00 0.00 0.00 0.00 0.00 0.00 0.00 0.00 0.00 0.00 0.00 0.00 0.00 0.00 0.00 0.00 0.00 0.00 0.00 0.00 0.01 0.01 0.01 0.01 0.02 0.02 0.04 0.05 0.05 0.06 0.07 0.08 0.10 0.10 0.10 0.10 0.11
0.00 0.00 0.00 0.00 0.00 0.00 0.00 0.00 0.00 0.00 0.00 0.00 0.00 0.00 0.00 0.00 0.00 0.00 0.00 0.00 0.00 0.00 0.00 0.00 0.00 0.00 0.01 0.01 0.01 0.01 0.02 0.02 0.03 0.04 0.04 0.04 0.06 0.07 0.08 0.08 0.09 0.09 0.09 0.10
0.00 0.00 0.00 0.00 0.00 0.00 0.00 0.00 0.00 0.00 0.00 0.00 0.00 0.00 0.00 0.00 0.00 0.00 0.00 0.00 0.00 0.00 0.00 0.00 0.00 0.00 0.01 0.01 0.01 0.02 0.02 0.02 0.03 0.03 0.04 0.05 0.06 0.07 0.07 0.08 0.08 0.08 0.08 0.08
0.00 0.00 0.00 0.00 0.00 0.00 0.00 0.00 0.00 0.00 0.00 0.00 0.00 0.00 0.00 0.00 0.00 0.00 0.00 0.00 0.00 0.00 0.00 0.00 0.00 0.00 0.01 0.01 0.02 0.02 0.02 0.02 0.02 0.02 0.03 0.03 0.05 0.06 0.07 0.08 0.08 0.08 0.08 0.08
0.00 0.00 0.00 0.00 0.00 0.00 0.00 0.00 0.00 0.00 0.00 0.00 0.00 0.00 0.00 0.00 0.00 0.00 0.00 0.00 0.00 0.00 0.00 0.00 0.00 0.00 0.01 0.01 0.02 0.02 0.01 0.01 0.01 0.02 0.02 0.03 0.04 0.05 0.04 0.06 0.05 0.05 0.07 0.07
0.00 0.00 0.00 0.00 0.00 0.00 0.00 0.00 0.00 0.00 0.00 0.00 0.00 0.00 0.00 0.00 0.00 0.00 0.00 0.00 0.00 0.00 0.00 0.00 0.00 0.00 0.01 0.01 0.02 0.02 0.01 0.01 0.01 0.01 0.02 0.02 0.03 0.04 0.03 0.02 0.02 0.02 0.02 0.03
0.00 0.00 0.00 0.00 0.00 0.00 0.00 0.00 0.00 0.00 0.00 0.00 0.00 0.00 0.00 0.00 0.00 0.00 0.00 0.00 0.00 0.00 0.00 0.00 0.00 0.00 0.01 0.01 0.02 0.02 0.02 0.01 0.01 0.01 0.02 0.02 0.02 0.04 0.04 0.04 0.02 0.02 0.01 0.01
0.00 0.00 0.00 0.00 0.00 0.00 0.00 0.00 0.00 0.00 0.00 0.00 0.00 0.00 0.00 0.00 0.00 0.00 0.00 0.00 0.00 0.00 0.00 0.00 0.00 0.00 0.01 0.01 0.02 0.02 0.02 0.01 0.01 0.02 0.02 0.02 0.02 0.03 0.04 0.06 0.06 0.05 0.02 0.01
0.00 0.00 0.00 0.00 0.00 0.00 0.00 0.00 0.00 0.00 0.00 0.00 0.00 0.00 0.00 0.00 0.00 0.00 0.00 0.00 0.00 0.00 0.00 0.00 0.00 0.00 0.01 0.02 0.02 0.02 0.02 0.01 0.01 0.02 0.03 0.03 0.03 0.04 0.04 0.05 0.04 0.04 0.03 0.02
0.00 0.00 0.00 0.00 0.00 0.00 0.00 0.00 0.00 0.00 0.00 0.00 0.00 0.00 0.00 0.00 0.00 0.00 0.00 0.00 0.00 0.00 0.00 0.00 0.00 0.01 0.01 0.02 0.02 0.02 0.02 0.02 0.01 0.01 0.02 0.02 0.03 0.03 0.04 0.05 0.04 0.03 0.03 0.02
0.00 0.00 0.00 0.00 0.00 0.00 0.00 0.00 0.00 0.00 0.00 0.00 0.00 0.00 0.00 0.00 0.00 0.00 0.00 0.00 0.00 0.00 0.00 0.00 0.00 0.00 0.01 0.01 0.02 0.03 0.02 0.02 0.01 0.01 0.02 0.02 0.03 0.03 0.04 0.05 0.05 0.04 0.03 0.02
0.00 0.00 0.00 0.00 0.00 0.00 0.00 0.00 0.00 0.00 0.00 0.00 0.00 0.00 0.00 0.00 0.00 0.00 0.00 0.00 0.00 0.00 0.00 0.00 0.00 0.00 0.01 0.01 0.02 0.03 0.02 0.02 0.02 0.01 0.01 0.02 0.02 0.03 0.04 0.04 0.04 0.04 0.04 0.02
0.00 0.00 0.00 0.00 0.00 0.00 0.00 0.00 0.00 0.00 0.00 0.00 0.00 0.00 0.00 0.00 0.00 0.00 0.00 0.00 0.00 0.00 0.00 0.00 0.00 0.00 0.00 0.01 0.02 0.02 0.02 0.02 0.03 0.02 0.01 0.01 0.03 0.03 0.03 0.03 0.04 0.04 0.04 0.04
0.00 0.00 0.00 0.00 0.00 0.00 0.00 0.00 0.00 0.00 0.00 0.00 0.00 0.00 0.00 0.00 0.00 0.00 0.00 0.00 0.00 0.00 0.00 0.00 0.00 0.00 0.00 0.01 0.02 0.02 0.02 0.02 0.03 0.03 0.01 0.01 0.02 0.03 0.02 0.02 0.03 0.04 0.04 0.04
0.00 0.00 0.00 0.00 0.00 0.00 0.00 0.00 0.00 0.00 0.00 0.00 0.00 0.00 0.00 0.00 0.00 0.00 0.00 0.00 0.00 0.00 0.00 0.00 0.00 0.00 0.00 0.01 0.02 0.01 0.02 0.02 0.02 0.03 0.02 0.01 0.01 0.02 0.02 0.02 0.02 0.03 0.04 0.04
0.00 0.00 0.00 0.00 0.00 0.00 0.00 0.00 0.00 0.00 0.00 0.00 0.00 0.00 0.00 0.00 0.00 0.00 0.00 0.00 0.00 0.00 0.00 0.00 0.00 0.00 0.01 0.01 0.01 0.01 0.01 0.02 0.02 0.02 0.03 0.02 0.02 0.01 0.02 0.02 0.02 0.02 0.03 0.04
0.00 0.00 0.00 0.00 0.00 0.00 0.00 0.00 0.00 0.00 0.00 0.00 0.00 0.00 0.00 0.00 0.00 0.00 0.00 0.00 0.00 0.00 0.00 0.00 0.00 0.00 0.01 0.01 0.00 0.01 0.01 0.01 0.01 0.02 0.02 0.02 0.02 0.01 0.01 0.01 0.01 0.01 0.01 0.02
0.00 0.00 0.00 0.00 0.00 0.00 0.00 0.00 0.00 0.00 0.00 0.00 0.00 0.00 0.00 0.00 0.00 0.00 0.00 0.00 0.00 0.00 0.00 0.00 0.00 0.00 0.01 0.00 0.00 0.01 0.01 0.01 0.01 0.01 0.01 0.01 0.01 0.01 0.01 0.01 0.01 0.01 0.01 0.01
0.00 0.00 0.00 0.00 0.01 0.01 0.01 0.01 0.00 0.00 0.00 0.00 0.00 0.00 0.00 0.00 0.00 0.00 0.00 0.00 0.00 0.00 0.00 0.00 0.00 0.00 0.00 0.01 0.01 0.00 0.01 0.01 0.00 0.00 0.00 0.01 0.01 0.01 0.01 0.01 0.01 0.01 0.00 0.01
0.00 0.00 0.00 0.01 0.01 0.01 0.01 0.01 0.01 0.01 0.01 0.01 0.00 0.00 0.00 0.00 0.00 0.00 0.00 0.00 0.00 0.00 0.00 0.00 0.00 0.00 0.00 0.00 0.01 0.01 0.02 0.02 0.01 0.00 0.00 0.00 0.00 0.01 0.01 0.01 0.01 0.01 0.00 0.00
0.00 0.01 0.01 0.01 0.02 0.02 0.02 0.03 0.03 0.04 0.03 0.02 0.01 0.01 0.00 0.00 0.00 0.00 0.00 0.00 0.00 0.00 0.00 0.00 0.00 0.00 0.00 0.00 0.00 0.01 0.02 0.03 0.02 0.01 0.00 0.00 0.00 0.00 0.00 0.00 0.00 0.00 0.00 0.00
MSLP
1014.27 1014.48 1014.66 1014.81 1014.93 1015.00 1015.04 1015.03 1014.99 1014.91 1014.81 1014.70 1014.59 1014.50 1014.42 1014.35 1014.30 1014.23 1014.14 1014.02 1013.85 1013.63 1013.38 1013.09 1012.78 1012.46 1012.14 1011.82 1011.49 1011.15 1010.79 1010.39 1009.96 1009.49 1009.00 1008.49 1007.98 1007.50 1007.04 1006.63 1006.26 1005.93 1005.63 1005.38
1014.46 1014.68 1014.86 1014.98 1015.04 1015.04 1015.00 1014.93 1014.83 1014.72 1014.61 1014.52 1014.43 1014.38 1014.33 1014.29 1014.24 1014.17 1014.06 1013.91 1013.70 1013.46 1013.18 1012.87 1012.55 1012.23 1011.91 1011.58 1011.25 1010.89 1010.50 1010.07 1009.59 1009.09 1008.56 1008.02 1007.49 1006.99 1006.52 1006.09 1005.69 1005.33 1004.98 1004.66
1014.54 1014.76 1014.91 1014.99 1015.00 1014.95 1014.85 1014.73 1014.60 1014.48 1014.39 1014.32 1014.28 1014.26 1014.25 1014.23 1014.19 1014.10 1013.97 1013.77 1013.53 1013.24 1012.93 1012.60 1012.26 1011.94 1011.61 1011.28 1010.93 1010.56 1010.14 1009.67 1009.17 1008.62 1008.06 1007.49 1006.94 1006.43 1005.95 1005.50 1005.09 1004.70 1004.32 1003.96
1014.51 1014.70 1014.81 1014.84 1014.79 1014.69 1014.56 1014.41 1014.27 1014.17 1014.10 1014.07 1014.08 1014.11 1014.14 1014.14 1014.10 1013.99 1013.82 1013.58 1013.29 1012.95 1012.60 1012.24 1011.89 1011.55 1011.22 1010.89 1010.53 1010.14 1009.70 1009.21 1008.66 1008.09 1007.48 1006.89 1006.32 1005.78 1005.29 1004.84 1004.43 1004.03 1003.65 1003.27
1014.36 1014.49 1014.53 1014.50 1014.41 1014.27 1014.11 1013.96 1013.83 1013.76 1013.74 1013.77 1013.83 1013.91 1013.97 1013.99 1013.94 1013.81 1013.60 1013.32 1012.97 1012.59 1012.20 1011.81 1011.44 1011.09 1010.76 1010.42 1010.07 1009.67 1009.21 1008.69 1008.11 1007.49 1006.85 1006.22 1005.62 1005.06 1004.56 1004.12 1003.71 1003.34 1002.98 1002.62
1014.06 1014.11 1014.09 1014.00 1013.86 1013.70 1013.54 1013.40 1013.31 1013.28 1013.32 1013.41 1013.53 1013.65 1013.74 1013.76 1013.71 1013.56 1013.31 1012.98 1012.59 1012.17 1011.74 1011.33 1010.95 1010.60 1010.27 1009.94 1009.58 1009.17 1008.70 1008.15 1007.54 1006.88 1006.20 1005.52 1004.89 1004.31 1003.80 1003.36 1002.98 1002.65 1002.34 1002.04
1013.62 1013.58 1013.49 1013.36 1013.19 1013.03 1012.88 1012.78 1012.74 1012.77 1012.87 1013.02 1013.19 1013.35 1013.46 1013.49 1013.42 1013.24 1012.96 1012.59 1012.17 1011.72 1011.27 1010.85 1010.47 1010.13 1009.81 1009.48 1009.12 1008.71 1008.22 1007.64 1006.99 1006.29 1005.56 1004.85 1004.18 1003.58 1003.06 1002.64 1002.29 1002.01 1001.78 1001.57
1013.03 1012.92 1012.78 1012.61 1012.45 1012.31 1012.21 1012.16 1012.19 1012.29 1012.45 1012.65 1012.86 1013.04 1013.16 1013.19 1013.10 1012.90 1012.59 1012.20 1011.75 1011.29 1010.84 1010.42 1010.05 1009.72 1009.41 1009.09 1008.73 1008.31 1007.80 1007.20 1006.51 1005.76 1004.99 1004.24 1003.53 1002.91 1002.40 1001.99 1001.69 1001.48 1001.33 1001.23
1012.30 1012.14 1011.97 1011.82 1011.69 1011.60 1011.57 1011.61 1011.71 1011.88 1012.10 1012.34 1012.58 1012.77 1012.88 1012.89 1012.78 1012.55 1012.23 1011.82 1011.37 1010.92 1010.48 1010.08 1009.73 1009.41 1009.11 1008.79 1008.43 1007.99 1007.45 1006.82 1006.09 1005.31 1004.50 1003.71 1002.98 1002.35 1001.85 1001.47 1001.22 1001.08 1001.02 1001.01
1011.45 1011.27 1011.12 1011.01 1010.95 1010.95 1011.01 1011.14 1011.33 1011.57 1011.84 1012.12 1012.36 1012.53 1012.63 1012.61 1012.47 1012.23 1011.89 1011.48 1011.05 1010.61 1010.20 1009.82 1009.50 1009.20 1008.90 1008.58 1008.20 1007.73 1007.16 1006.48 1005.72 1004.90 1004.06 1003.25 1002.52 1001.90 1001.41 1001.08 1000.88 1000.80 1000.82 1000.90
1010.51 1010.35 1010.25 1010.21 1010.25 1010.36 1010.53 1010.77 1011.05 1011.35 1011.66 1011.95 1012.19 1012.34 1012.39 1012.34 1012.17 1011.91 1011.57 1011.18 1010.76 1010.36 1009.98 1009.64 1009.34 1009.04 1008.74 1008.40 1007.99 1007.48 1006.87 1006.15 1005.35 1004.50 1003.65 1002.84 1002.12 1001.53 1001.08 1000.79 1000.64 1000.62 1000.69 1000.83
1009.51 1009.40 1009.37 1009.43 1009.58 1009.82 1010.11 1010.45 1010.82 1011.18 1011.52 1011.81 1012.02 1012.14 1012.16 1012.06 1011.87 1011.59 1011.26 1010.89 1010.51 1010.14 1009.80 1009.49 1009.20 1008.91 1008.60 1008.22 1007.76 1007.19 1006.53 1005.77 1004.94 1004.07 1003.22 1002.43 1001.75 1001.20 1000.80 1000.56 1000.46 1000.49 1000.60 1000.76
1008.50 1008.45 1008.50 1008.67 1008.94 1009.29 1009.70 1010.14 1010.58 1011.00 1011.36 1011.64 1011.82 1011.90 1011.88 1011.75 1011.53 1011.25 1010.93 1010.59 1010.25 1009.93 1009.63 1009.35 1009.06 1008.76 1008.41 1007.98 1007.46 1006.84 1006.11 1005.31 1004.45 1003.58 1002.74 1001.99 1001.36 1000.87 1000.53 1000.35 1000.30 1000.36 1000.49 1000.64
1007.54 1007.54 1007.68 1007.94 1008.31 1008.77 1009.27 1009.79 1010.30 1010.75 1011.12 1011.39 1011.55 1011.59 1011.53 1011.38 1011.15 1010.87 1010.57 1010.27 1009.97 1009.70 1009.43 1009.17 1008.89 1008.57 1008.18 1007.69 1007.10 1006.40 1005.62 1004.77 1003.89 1003.02 1002.21 1001.51 1000.94 1000.52 1000.25 1000.13 1000.12 1000.20 1000.33 1000.46
1006.69 1006.74 1006.93 1007.26 1007.71 1008.24 1008.81 1009.39 1009.93 1010.40 1010.78 1011.05 1011.18 1011.21 1011.12 1010.96 1010.73 1010.47 1010.20 1009.94 1009.69 1009.46 1009.23 1008.98 1008.70 1008.35 1007.90 1007.35 1006.69 1005.93 1005.08 1004.19 1003.29 1002.43 1001.65 1001.00 1000.50 1000.15 999.95 999.88 999.91 1000.00 1000.12 1000.21
1006.03 1006.09 1006.31 1006.67 1007.15 1007.71 1008.32 1008.93 1009.49 1009.98 1010.36 1010.62 1010.75 1010.77 1010.68 1010.52 1010.31 1010.08 1009.85 1009.63 1009.43 1009.23 1009.03 1008.80 1008.50 1008.12 1007.63 1007.02 1006.29 1005.46 1004.56 1003.63 1002.72 1001.87 1001.13 1000.53 1000.08 999.80 999.66 999.63 999.69 999.79 999.88 999.94
1005.62 1005.66 1005.86 1006.21 1006.68 1007.24 1007.85 1008.46 1009.03 1009.52 1009.90 1010.16 1010.30 1010.32 1010.25 1010.11 1009.93 1009.73 1009.54 1009.37 1009.21 1009.05 1008.87 1008.65 1008.34 1007.93 1007.40 1006.74 1005.96 1005.08 1004.14 1003.18 1002.26 1001.42 1000.70 1000.14 999.74 999.51 999.41 999.42 999.49 999.59 999.66 999.68
1005.48 1005.48 1005.63 1005.92 1006.35 1006.87 1007.44 1008.02 1008.58 1009.06 1009.45 1009.72 1009.87 1009.91 1009.86 1009.76 1009.61 1009.46 1009.32 1009.18 1009.06 1008.94 1008.78 1008.56 1008.25 1007.82 1007.26 1006.57 1005.75 1004.83 1003.87 1002.90 1001.97 1001.13 1000.43 999.90 999.53 999.32 999.25 999.27 999.34 999.43 999.48 999.48
1005.61 1005.53 1005.60 1005.81 1006.16 1006.60 1007.11 1007.65 1008.18 1008.64 1009.03 1009.31 1009.48 1009.56 1009.55 1009.48 1009.38 1009.27 1009.17 1009.07 1008.98 1008.88 1008.74 1008.53 1008.23 1007.80 1007.23 1006.52 1005.69 1004.77 1003.79 1002.82 1001.89 1001.06 1000.37 999.84 999.48 999.27 999.20 999.21 999.27 999.34 999.38 999.35
1005.91 1005.75 1005.72 1005.83 1006.06 1006.42 1006.85 1007.33 1007.81 1008.26 1008.64 1008.94 1009.14 1009.25 1009.28 1009.25 1009.20 1009.13 1009.06 1009.00 1008.94 1008.86 1008.74 1008.55 1008.26 1007.85 1007.30 1006.60 1005.78 1004.87 1003.91 1002.94 1002.02 1001.20 1000.50 999.97 999.59 999.37 999.27 999.26 999.30 999.34 999.35 999.32
1006.28 1006.03 1005.89 1005.88 1006.00 1006.25 1006.60 1007.02 1007.45 1007.88 1008.26 1008.56 1008.79 1008.93 1009.00 1009.02 1009.00 1008.97 1008.94 1008.91 1008.87 1008.82 1008.73 1008.56 1008.30 1007.92 1007.41 1006.75 1005.97 1005.10 1004.17 1003.23 1002.33 1001.51 1000.81 1000.26 999.85 999.59 999.45 999.40 999.40 999.42 999.41 999.36
1006.58 1006.23 1005.98 1005.85 1005.87 1006.02 1006.29 1006.63 1007.03 1007.43 1007.80 1008.12 1008.37 1008.55 1008.66 1008.72 1008.74 1008.74 1008.74 1008.74 1008.73 1008.71 1008.65 1008.52 1008.31 1007.98 1007.52 1006.93 1006.21 1005.40 1004.53 1003.63 1002.76 1001.95 1001.25 1000.67 1000.23 999.93 999.74 999.64 999.59 999.57 999.54 999.48
1006.68 1006.24 1005.89 1005.67 1005.59 1005.65 1005.84 1006.12 1006.47 1006.85 1007.22 1007.55 1007.83 1008.04 1008.19 1008.29 1008.35 1008.39 1008.42 1008.45 1008.48 1008.49 1008.48 1008.40 1008.25 1007.98 1007.60 1007.09 1006.46 1005.73 1004.93 1004.09 1003.26 1002.47 1001.77 1001.18 1000.70 1000.35 1000.10 999.95 999.85 999.79 999.73 999.66
1006.52 1005.99 1005.56 1005.26 1005.10 1005.09 1005.22 1005.45 1005.77 1006.13 1006.50 1006.84 1007.14 1007.39 1007.58 1007.72 1007.82 1007.90 1007.98 1008.05 1008.12 1008.18 1008.21 1008.19 1008.11 1007.93 1007.64 1007.22 1006.69 1006.06 1005.34 1004.57 1003.80 1003.05 1002.35 1001.75 1001.24 1000.84 1000.54 1000.33 1000.18 1000.08 999.99 999.91
1006.09 1005.51 1005.01 1004.65 1004.43 1004.37 1004.45 1004.65 1004.94 1005.29 1005.66 1006.02 1006.35 1006.64 1006.87 1007.05 1007.20 1007.33 1007.45 1007.57 1007.69 1007.80 1007.89 1007.94 1007.93 1007.84 1007.65 1007.33 1006.91 1006.37 1005.75 1005.07 1004.36 1003.65 1002.98 1002.37 1001.85 1001.41 1001.06 1000.80 1000.60 1000.45 1000.33 1000.23
1005.46 1004.84 1004.31 1003.91 1003.65 1003.56 1003.61 1003.79 1004.07 1004.42 1004.80 1005.18 1005.54 1005.86 1006.14 1006.38 1006.58 1006.76 1006.93 1007.10 1007.27 1007.44 1007.59 1007.71 1007.77 1007.77 1007.67 1007.46 1007.14 1006.71 1006.19 1005.59 1004.95 1004.30 1003.66 1003.06 1002.52 1002.06 1001.68 1001.37 1001.12 1000.93 1000.78 1000.66
1004.76 1004.12 1003.57 1003.16 1002.89 1002.78 1002.82 1002.99 1003.27 1003.63 1004.02 1004.43 1004.82 1005.19 1005.51 1005.80 1006.06 1006.29 1006.52 1006.74 1006.96 1007.18 1007.39 1007.57 1007.71 1007.77 1007.76 1007.64 1007.42 1007.08 1006.66 1006.15 1005.59 1004.99 1004.40 1003.82 1003.29 1002.81 1002.40 1002.05 1001.77 1001.54 1001.35 1001.20
Thickness
5734 5735 5732 5726 5719 5715 5711 5705 5699 5696 5694 5697 5694 5685 5677 5671 5665 5658 5651 5644 5637 5631 5625 5619 5613 5608 5602 5598 5593 5589 5584 5579 5574 5569 5562 5556 5550 5543 5538 5534 5532 5532 5533 5536
5727 5728 5725 5718 5715 5711 5706 5703 5699 5696 5695 5700 5690 5681 5674 5668 5660 5653 5646 5639 5632 5626 5619 5613 5607 5601 5596 5591 5587 5581 5575 5570 5565 5558 5551 5543 5535 5528 5522 5518 5515 5514 5516 5519
5726 5724 5716 5711 5717 5710 5707 5706 5698 5690 5693 5694 5684 5675 5668 5662 5654 5647 5640 5633 5627 5621 5614 5608 5602 5595 5590 5585 5580 5574 5568 5561 5555 5547 5540 5531 5523 5515 5508 5503 5500 5499 5500 5503
5725 5713 5697 5720 5728 5717 5706 5704 5704 5698 5695 5689 5680 5672 5666 5660 5650 5642 5635 5628 5622 5616 5610 5604 5598 5591 5584 5578 5572 5566 5560 5553 5546 5537 5529 5521 5512 5504 5496 5490 5487 5486 5487 5490
5721 5714 5718 5719 5718 5713 5703 5701 5707 5697 5691 5685 5681 5670 5671 5660 5647 5637 5630 5623 5616 5610 5605 5598 5592 5585 5578 5571 5566 5560 5553 5546 5537 5529 5520 5512 5504 5496 5488 5482 5479 5478 5478 5481
5718 5702 5699 5719 5721 5716 5702 5695 5705 5696 5686 5680 5672 5664 5663 5654 5643 5635 5627 5620 5612 5606 5600 5594 5587 5579 5571 5566 5560 5554 5547 5539 5531 5522 5513 5506 5498 5491 5484 5478 5475 5474 5474 5476
5716 5708 5720 5725 5719 5707 5691 5693 5699 5692 5683 5674 5665 5658 5655 5648 5640 5631 5624 5617 5610 5602 5596 5589 5581 5574 5566 5560 5554 5548 5541 5534 5527 5519 5510 5503 5496 5488 5482 5477 5473 5471 5472 5474
5714 5704 5711 5721 5712 5704 5703 5704 5696 5688 5680 5671 5662 5656 5650 5643 5635 5627 5620 5614 5607 5600 5593 5585 5578 5569 5563 5556 5551 5544 5538 5531 5524 5517 5509 5503 5495 5488 5482 5477 5474 5472 5472 5473
5724 5721 5724 5725 5720 5719 5712 5702 5695 5687 5679 5669 5660 5653 5646 5639 5631 5624 5616 5610 5603 5596 5590 5582 5574 5565 5559 5554 5548 5542 5535 5529 5523 5517 5509 5502 5495 5489 5484 5478 5475 5473 5473 5474
5720 5728 5727 5724 5721 5716 5709 5700 5694 5685 5675 5666 5657 5650 5642 5635 5627 5620 5613 5606 5600 5593 5586 5579 5571 5563 5556 5551 5546 5539 5534 5529 5524 5518 5512 5504 5497 5491 5486 5481 5478 5476 5475 5477
5718 5725 5724 5722 5719 5716 5708 5699 5690 5681 5672 5663 5653 5645 5638 5630 5623 5616 5609 5603 5596 5588 5582 5575 5568 5561 5555 5549 5543 5538 5534 5530 5525 5520 5513 5507 5502 5495 5489 5485 5478 5475 5477 5479
5720 5730 5722 5722 5722 5716 5705 5694 5686 5677 5668 5660 5651 5642 5634 5626 5619 5612 5605 5599 5593 5586 5579 5572 5565 5559 5553 5547 5542 5537 5534 5531 5527 5522 5516 5511 5507 5501 5492 5485 5478 5474 5473 5475
5734 5735 5731 5727 5719 5712 5702 5694 5685 5674 5664 5655 5647 5639 5630 5623 5616 5609 5602 5596 5590 5583 5576 5570 5563 5557 5552 5546 5541 5538 5534 5532 5529 5524 5520 5515 5511 5506 5502 5493 5483 5479 5477 5478
5734 5726 5720 5718 5713 5707 5700 5691 5682 5671 5662 5653 5644 5635 5628 5620 5613 5606 5600 5593 5587 5580 5574 5568 5561 5556 5550 5545 5541 5539 5537 5535 5531 5528 5524 5520 5515 5511 5507 5502 5498 5494 5486 5481
5730 5723 5720 5718 5710 5702 5694 5685 5674 5666 5659 5650 5642 5633 5625 5617 5610 5603 5598 5591 5585 5579 5573 5566 5559 5554 5549 5545 5542 5540 5539 5538 5534 5532 5529 5525 5521 5516 5512 5507 5503 5500 5498 5493
5728 5720 5715 5709 5702 5695 5687 5678 5669 5663 5656 5646 5638 5630 5622 5615 5608 5602 5596 5590 5583 5577 5570 5564 5557 5552 5548 5545 5543 5541 5541 5538 5534 5534 5534 5531 5526 5520 5516 5510 5507 5504 5501 5501
5720 5713 5707 5701 5698 5691 5684 5676 5668 5660 5653 5643 5635 5627 5620 5613 5606 5601 5594 5587 5580 5574 5569 5561 5555 5550 5547 5545 5543 5542 5542 5542 5537 5538 5538 5534 5529 5523 5518 5514 5511 5508 5506 5502
5720 5717 5712 5705 5699 5690 5681 5673 5665 5656 5646 5639 5631 5623 5616 5610 5604 5597 5591 5585 5578 5573 5568 5559 5552 5549 5547 5546 5543 5543 5543 5543 5542 5541 5539 5537 5532 5528 5522 5517 5514 5512 5511 5509
5712 5709 5706 5699 5693 5685 5677 5668 5660 5651 5642 5634 5625 5618 5612 5607 5601 5595 5589 5582 5578 5573 5565 5557 5549 5549 5548 5547 5543 5544 5545 5545 5545 5543 5542 5537 5535 5531 5526 5522 5518 5515 5515 5515
5700 5699 5696 5690 5683 5677 5669 5662 5654 5645 5636 5628 5621 5614 5609 5604 5598 5592 5586 5581 5576 5567 5558 5553 5550 5549 5547 5545 5542 5544 5545 5545 5545 5545 5545 5543 5539 5534 5529 5525 5521 5517 5516 5517
5687 5686 5682 5678 5673 5668 5663 5656 5648 5639 5631 5624 5617 5611 5605 5600 5595 5590 5585 5581 5572 5562 5555 5552 5549 5546 5544 5540 5542 5544 5545 5545 5545 5545 5545 5545 5542 5538 5533 5528 5524 5521 5519 5520
5670 5671 5669 5668 5663 5658 5655 5649 5642 5634 5626 5618 5612 5607 5602 5597 5594 5588 5583 5576 5568 5557 5553 5553 5548 5541 5538 5538 5543 5543 5544 5543 5543 5544 5545 5545 5545 5542 5537 5533 5530 5527 5526 5525
5653 5654 5654 5654 5651 5649 5646 5641 5635 5628 5621 5615 5609 5604 5600 5595 5590 5586 5581 5574 5565 5554 5551 5550 5541 5537 5535 5540 5540 5540 5541 5541 5542 5542 5543 5544 5546 5545 5542 5540 5537 5534 5532 5531
5636 5639 5640 5640 5640 5638 5636 5633 5628 5621 5615 5609 5606 5600 5594 5592 5590 5586 5577 5567 5559 5551 5552 5545 5538 5535 5535 5538 5536 5535 5536 5537 5539 5540 5542 5544 5546 5547 5546 5545 5544 5541 5538 5536
5620 5623 5625 5625 5626 5628 5628 5624 5618 5613 5608 5605 5602 5595 5590 5586 5583 5579 5571 5565 5557 5551 5551 5545 5538 5534 5535 5533 5532 5531 5531 5531 5533 5536 5539 5542 5544 5547 5548 5548 5548 5547 5545 5543
5606 5610 5614 5615 5616 5618 5620 5619 5615 5610 5604 5600 5597 5592 5587 5581 5575 5571 5567 5563 5557 5550 5547 5543 5538 5534 5531 5528 5527 5526 5526 5527 5530 5533 5535 5539 5542 5545 5547 5548 5549 5550 5548 5547
5594 5599 5603 5607 5610 5611 5611 5612 5609 5606 5601 5595 5591 5587 5581 5576 5570 5566 5562 5559 5555 5550 5545 5539 5534 5529 5525 5523 5521 5520 5519 5521 5524 5527 5531 5535 5538 5541 5544 5546 5549 5550 5550 5551